Regional Weather Roundup
Issued by NWS

Home | Current Version | Previous Version | Graphics & Text | Print | Product List | Glossary On
Versions: 1 2 3 4 5 6 7 8 9 10 11 12 13 14 15 16 17 18 19 20 21 22 23 24 25 26 27
000
ASUS45 KCYS 290610
RWRWY

WYOMING REGIONAL WEATHER ROUNDUP
NATIONAL WEATHER SERVICE CHEYENNE WY
1200 AM MDT MON MAY 29 2017

NOTE:  "FAIR" INDICATES FEW OR NO CLOUDS BELOW 12,000 FEET
WITH NO SIGNIFICANT WEATHER AND/OR OBSTRUCTIONS TO VISIBILITY.

WYZ001-290700-
YELLOWSTONE NATIONAL PARK

CITY           SKY/WX    TMP DP  RH WIND       PRES   REMARKS
LK YELLOWSTONE   N/A     33  33 100 CALM      30.40S
6HR MIN TEMP:  33; 6HR MAX TEMP:  53;

W YELLOWSTONE  NOT AVBL

$$
WYZ002>013-054>058-071-098>099-290700-
NORTHERN WYOMING

CITY           SKY/WX    TMP DP  RH WIND       PRES   REMARKS
JACKSON        FAIR      45  37  76 N7        30.32R
CODY           FAIR      52  41  66 SW3       30.30S
GREYBULL       MOCLDY    56  40  55 W13       30.22S
6HR MIN TEMP:  56; 6HR MAX TEMP:  71;

WORLAND        MOCLDY    49  48  97 S8        30.23S
6HR MIN TEMP:  49; 6HR MAX TEMP:  65; 6HR PCP:  0.05;

SHERIDAN       FAIR      55  40  56 W13       30.20S
6HR MIN TEMP:  51; 6HR MAX TEMP:  61; 6HR PCP: TRACE;

BUFFALO        FAIR      54  34  46 W13       30.23F
6HR MIN TEMP:  52; 6HR MAX TEMP:  62;

GILLETTE       FAIR      47  41  80 W14       30.18S
HULETT         FAIR      52  41  66 W5        30.18S
NEWCASTLE      FAIR      46  37  71 N8        30.17S

$$
WYZ014>020-022>026-101>103-290700-
CENTRAL WYOMING

CITY           SKY/WX    TMP DP  RH WIND       PRES   REMARKS
BIG PINEY      FAIR      42  31  64 N8        30.32R
6HR MIN TEMP:  40; 6HR MAX TEMP:  66; 6HR PCP: TRACE;

PINEDALE       FAIR      41  32  70 NW6       30.32S
DUBOIS         FAIR      43  32  65 W5        30.34S
LANDER         CLOUDY    52  41  66 SW3       30.29S
6HR MIN TEMP:  50; 6HR MAX TEMP:  67; 6HR PCP:  0.01;

RIVERTON       FAIR      51  44  77 NE5       30.29F
6HR MIN TEMP:  51; 6HR MAX TEMP:  67; 6HR PCP: TRACE;

CASPER         CLOUDY    47  46  97 SW9       30.28S
6HR MIN TEMP:  46; 6HR MAX TEMP:  63; 6HR PCP:  0.13;

DOUGLAS        MOCLDY    47  42  83 NW9       30.25S
6HR MIN TEMP:  44; 6HR MAX TEMP:  67; 6HR PCP: TRACE;


$$
WYZ021-027>030-104>119-290700-
SOUTHERN WYOMING

CITY           SKY/WX    TMP DP  RH WIND       PRES   REMARKS
EVANSTON       FAIR      50  29  44 E3        30.31S
6HR MIN TEMP:  50; 6HR MAX TEMP:  66;

KEMMERER         N/A     46  34  61 NW9       30.31F
FORT BRIDGER   FAIR      49  28  42 W8        30.33S
ROCK SPRINGS   FAIR      48  36  63 NE16      30.31S
6HR MIN TEMP:  48; 6HR MAX TEMP:  66;

DIXON            N/A     47  32  56 NE7G13    30.31R
RAWLINS        CLOUDY    48  38  68 E5        30.34R
6HR MIN TEMP:  48; 6HR MAX TEMP:  66; 6HR PCP: TRACE;

SARATOGA       FAIR      45  36  70 W9        30.34S
LARAMIE        MOCLDY    41  36  82 W5        30.34R
6HR MIN TEMP:  41; 6HR MAX TEMP:  62;

CHEYENNE       MOCLDY    48  39  71 NW6       30.28F
6HR MIN TEMP:  48; 6HR MAX TEMP:  59;

TORRINGTON     FAIR      53  42  66 N7        30.18F
6HR MIN TEMP:  53; 6HR MAX TEMP:  68;

PINE BLUFFS    CLOUDY    50  43  76 CALM      30.24F

$$




USA.gov is the U.S. government's official web portal to all federal, state and local government web resources and services.